Regional Weather Roundup
Issued by NWS Wilmington, NC

Home | Current Version | Previous Version | Text Only | Print | Product List | Glossary On
Versions: 1 2 3 4 5 6 7 8 9 10 11 12 13 14 15 16 17 18 19 20 21 22 23 24 25 26 27 28 29 30 31 32 33 34 35 36 37 38 39 40 41 42 43 44 45 46 47 48 49 50
000
ASUS42 KILM 171212
RWRILM
RWRILM
REGIONAL HOURLY WEATHER ROUNDUP
NATIONAL WEATHER SERVICE WILMINGTON NC
700 AM EST TUE JAN 17 2017

NOTE: "FAIR" INDICATES FEW OR NO CLOUDS BELOW 12,000 FEET WITH NO
SIGNIFICANT WEATHER AND/OR OBSTRUCTIONS TO VISIBILITY.

...............WFO WILMINGTON COUNTY WARNING AREA...............

......COASTAL NC AND SC COUNTIES......

CITY           SKY/WX    TMP DP  RH WIND       PRES   REMARKS
WILMINGTON     CLOUDY    48  47  96 CALM      30.26R
N MYRTLE BEACH CLOUDY    50  49  96 N3        30.26R
MYRTLE BEACH   CLOUDY    70  48  46 N6        30.26F

......INLAND NC AND SC COUNTIES.......

CITY           SKY/WX    TMP DP  RH WIND       PRES   REMARKS
LUMBERTON      FOG       49  49 100 CALM      30.26R VSB 1/4
ELIZABETHTOWN  CLOUDY    49  48  95 CALM      30.26S
WHITEVILLE     CLOUDY    50  49  95 CALM      30.26R FOG
FLORENCE       FOG       52  52 100 CALM      30.27R VSB 1/4
DARLINGTON     LGT RAIN  51  50  96 CALM      30.27S VSB 1/2
KINGSTREE      FOG       52  50  93 CALM      30.27R VSB 1/4
HARTSVILLE     CLOUDY    50  50 100 CALM      30.26S VSB 1/2
BENNETTSVILLE  CLOUDY    52  52 100 CALM      30.26S VSB 1/4
CONWAY         FOG       50  50 100 CALM      30.27R VSB 1/4
GEORGETOWN     FOG       52  50  93 CALM      30.27R VSB 1/2
MARION         FOG       48  48 100 CALM      30.26S VSB 1/4

....................REST OF NORTH CAROLINA......................

.........EASTERN NC.........

CITY           SKY/WX    TMP DP  RH WIND       PRES   REMARKS
CAPE HATTERAS  CLOUDY    48  44  86 CALM      30.26S
JACKSONVILLE   MOCLDY    45  44  97 CALM      30.27R
MOREHEAD CITY  MOCLDY    46  43  89 NE3       30.26S
KENANSVILLE    CLEAR     43  43 100 CALM      30.27R
NEW BERN       MOCLDY    43  41  93 CALM      30.28R
ELIZABETH CITY CLOUDY    43  41  93 CALM      30.27S

.........CENTRAL NC.........

CITY           SKY/WX    TMP DP  RH WIND       PRES   REMARKS
RALEIGH DURHAM DRZL/FOG  48  47  96 SW7       30.26S VSB 1/2
ROCKY MOUNT    CLOUDY    48  46  93 CALM      30.27R
ROANOKE RAPIDS NOT AVBL
FAYETTEVILLE   CLOUDY    50  46  86 CALM      30.26R
HOFFMAN        FOG       49  48  98 CALM      30.26R VSB 3/8

.........WESTERN NC.........

CITY           SKY/WX    TMP DP  RH WIND       PRES   REMARKS
CHARLOTTE      DRZL/FOG  50  49  96 S6        30.25S VSB 1/2
GREENSBORO     FOG       48  48 100 SW8       30.21F VSB 1
HICKORY        NOT AVBL
BOONE          NOT AVBL
ASHEVILLE      NOT AVBL

.....................REST OF SOUTH CAROLINA.....................

.........EASTERN SC.........

CITY           SKY/WX    TMP DP  RH WIND       PRES   REMARKS
CHARLESTON     FOG       54  53  97 CALM      30.26R VSB 1/2
BEAUFORT MCAS  FOG       56  55  97 CALM      30.26S VSB 1/4
HILTON HEAD    PTCLDY    57  57 100 CALM      30.26R FOG

.........CENTRAL SC.........

CITY           SKY/WX    TMP DP  RH WIND       PRES   REMARKS
COLUMBIA       FOG       54  53  97 E5        30.25R VSB 1/2
ORANGEBURG     FOG       56  56 100 CALM      30.26R VSB 1/2
SUMTER SHAW    FOG       54  54 100 CALM      30.24S VSB 3/4

.........WESTERN SC.........

CITY           SKY/WX    TMP DP  RH WIND       PRES   REMARKS
GREENVILLE     NOT AVBL
ROCK HILL      CLOUDY    50  50 100 CALM      30.25S FOG
ANDERSON       CLOUDY    53  53 100 NE3       30.24S FOG
CLEMSON        NOT AVBL
GREENWOOD      FOG       52  51  97 CALM      30.26R VSB 1/2


...................COASTAL AND OFFSHORE REPORTS..................

................LOCAL PIERS AND NC RESERVE................


STATION/POSITION TIME  SKY/WX   TEMP    WIND        PRES    VSBY
                                AIR SEA DIR/SP/G
                 (UTC)          (F)     (DEG/KT/KT) (MB)    (MI)
JOHNY MRCER PIER 1148            51 54   20/  6/  6 1023.4R
NC RESRV MASNBRO 1045            51      50/  1     1023.0
OCEAN CREST PIER NOT AVBL
SPRINGMAID  PIER NOT AVBL


................COASTAL AND OFFSHORE BUOYS................


STATION/POSITION TIME  SKY/WX   TEMP    WIND        PRES    VSBY
                                AIR SEA DIR/SP/G
                 (UTC)          (F)     (DEG/KT/KT) (MB)    (MI)
DIMNDSHOAL 41025 1150            56 72   10/ 10/ 12 1024.4R
WVE H/P(F/S)=  2/ 8 SWL H/P/D(F/S/D)=  2/110/ 8

CAPE LOOKOUT     1100            49      10/  3/  3 1024.0R
ONSLOW BAY 41036 NOT AVBL
ONSLOW BAY 41064 1108            59 61   80/  6/  8 1024.2S
ONSLOW BAY 41159 1143               62                N/A
WVE H/P(F/S)=  3/ 8

MASNBO INL 41110 1159               54                N/A
WVE H/P(F/S)=  2/11

WILM HARBR 41108 1156               55                N/A
WVE H/P(F/S)=  2/ 9

27SE WRITB 41037 1108            64 68  110/  8/ 10 1023.7F
FRYING PAN 41013 1150            71 71  170/  8/ 10 1024.0R
WVE H/P(F/S)=  3/ 7 SWL H/P/D(F/S/D)=  2/ 90/ 7

SUNST NRSH 41024 1108            51 54   10/  6/  8 1023.9R
CAPRS NRSH 41029 1108            53 53  350/  4/  4 1024.1R
EDISTO     41004 1050            70 70  180/  4/  4 1023.7
WVE H/P(F/S)=  3/ 9 SWL H/P/D(F/S/D)=  3/110/ 9



..........OFFSHORE BUOYS BEYOND 100 NM OFFSHORE...........
.....IN A TRIANGLE---HAT TO BERMUDA TO BAHAMAS TO HAT.....


STATION/POSITION TIME  SKY/WX   TEMP    WIND        PRES    VSBY
                                AIR SEA DIR/SP/G
                 (UTC)          (F)     (DEG/KT/KT) (MB)    (MI)
150E HAT   41001 NOT AVBL
W BERMUDA  41048 1150            65 70  160/  2/  4 1026.8R
WVE H/P(F/S)=  4/ 8 SWL H/P/D(F/S/D)=  3/ 50/ 8

ATLANTIC S 41049 1150            70 73   60/ 16/ 17 1024.3R
WVE H/P(F/S)=  5/ 9 SWL H/P/D(F/S/D)=  3/350/ 9

E BAHAMAS  41046 1150            75 78   70/ 16/ 19 1022.5R
WVE H/P(F/S)=  7/ 7

NE BAHAMAS 41047 1150            72 74   60/ 12/ 16 1025.3R
WVE H/P(F/S)=  5/ 8 SWL H/P/D(F/S/D)=  3/ 80/ 8

120E CANVRL41010 NOT AVBL

END



USA.gov is the U.S. government's official web portal to all federal, state and local government web resources and services.